Tracking 22881 objects as of 19-Apr-2021
HD Live streaming from Space Station
objects crossing your sky now

SAUDISAT 3

Track SAUDISAT 3 now!
10-day predictions
SAUDISAT 3 is classified as:


NORAD ID: 31118
Int'l Code: 2007-012B
Perigee: 659.1 km
Apogee: 682.4 km
Inclination: 97.9 °
Period: 98.0 minutes
Semi major axis: 7041 km
RCS: 0.633 m2 (medium)
Launch date: April 17, 2007
Source: Saudi Arabia (SAUD)
Launch site: TYURATAM MISSILE AND SPACE COMPLEX (TTMTR)
aabbcc
Your satellite tracking list
Your tracking list is empty




NASA's NSSDC Master Catalog

Two Line Element Set (TLE):
1 31118U 07012B   21109.15864876  .00000058  00000-0  17985-4 0  9999
2 31118  97.9154  62.9829 0016506 106.3518 253.9504 14.69199022750855
Source of the keplerian elements: AFSPC